DW9313 Weather Reports


Display with metric or nautical units.
time (UTC)temp
F
wind
direction
speed
MPH
gust
MPH
rain 1hr
in
rain 24hr
in
rain mn
in
humidity
%
barometer
mb
20260510105759 56 277 2.0 8.0 0.00 0.01 0.00 66 1020.7
20260510105259 56 129 2.0 6.0 0.00 0.01 0.00 65 1020.8
20260510104758 56 250 2.0 6.0 0.00 0.01 0.00 66 1020.8
20260510104258 57 296 3.0 8.0 0.00 0.01 0.00 65 1020.7
20260510103759 56 118 2.0 8.0 0.00 0.01 0.00 66 1020.8
20260510103301 57 275 4.0 9.0 0.00 0.01 0.00 65 1020.9
20260510102800 57 114 3.0 7.0 0.00 0.01 0.00 65 1020.9
20260510102300 57 246 2.0 5.0 0.00 0.01 0.00 67 1021.0
20260510101800 56 142 3.0 8.0 0.00 0.01 0.00 68 1020.9
20260510101259 56 218 2.0 10.0 0.00 0.01 0.00 68 1021.0
20260510100800 56 143 2.0 8.0 0.00 0.01 0.00 68 1021.0
20260510095801 55 355 2.0 8.0 0.00 0.01 0.00 70 1021.0
20260510095259 55 215 2.0 9.0 0.00 0.01 0.00 71 1021.1
20260510094759 55 257 2.0 7.0 0.00 0.01 0.00 72 1021.1
20260510094300 54 284 2.0 9.0 0.00 0.01 0.00 72 1021.2
20260510093800 55 302 1.0 12.0 0.00 0.01 0.00 72 1021.2
20260510092800 54 260 1.0 6.0 0.00 0.01 0.00 73 1021.2
20260510092259 53 97 3.0 8.0 0.00 0.01 0.00 74 1021.3
20260510091759 52 304 3.0 10.0 0.00 0.01 0.00 74 1021.5
20260510091300 52 298 3.0 12.0 0.00 0.01 0.00 74 1021.4
20260510090800 52 288 1.0 7.0 0.00 0.01 0.00 74 1021.4
20260510090259 52 295 3.0 7.0 0.00 0.01 0.00 74 1021.5
20260510084801 51 305 2.0 8.0 0.00 0.01 0.00 75 1021.7
20260510084259 51 291 3.0 6.0 0.00 0.01 0.00 75 1021.6
20260510083259 50 316 3.0 10.0 0.00 0.01 0.00 76 1021.7
20260510082801 50 292 2.0 9.0 0.00 0.01 0.00 76 1021.7
20260510081300 50 294 1.0 6.0 0.00 0.01 0.00 77 1021.6
20260510080801 50 309 5.0 9.0 0.00 0.01 0.00 73 1021.7
20260510080304 50 185 1.0 6.0 0.00 0.01 0.00 74 1021.6
20260510075803 49 199 1.0 5.0 0.00 0.01 0.00 75 1021.6
20260510075317 49 294 1.0 6.0 0.00 0.01 0.00 76 1021.6
20260510074804 49 305 3.0 14.0 0.00 0.01 0.00 75 1021.7
20260510074325 48 322 1.0 6.0 0.00 0.01 0.00 77 1021.6
20260510073800 48 303 0.0 6.0 0.00 0.01 0.00 78 1021.6
20260510073300 47 286 2.0 5.0 0.00 0.01 0.00 78 1021.7
20260510072800 47 302 2.0 6.0 0.00 0.01 0.00 79 1021.6
20260510072300 46 290 4.0 7.0 0.00 0.01 0.00 79 1021.6
20260510071800 46 309 2.0 8.0 0.00 0.01 0.00 79 1021.6
20260510071302 46 301 3.0 8.0 0.00 0.01 0.00 80 1021.6
20260510070802 46 288 3.0 6.0 0.00 0.01 0.00 80 1021.6
20260510070301 45 305 4.0 7.0 0.00 0.01 0.00 80 1021.6
20260510065800 45 308 2.0 6.0 0.00 0.01 0.00 80 1021.6
20260510064800 44 298 2.0 7.0 0.00 0.01 0.00 82 1021.5
20260510064301 44 303 5.0 9.0 0.00 0.01 0.00 82 1021.5
20260510063801 44 304 3.0 6.0 0.00 0.01 0.00 83 1021.5
20260510063301 43 294 2.0 13.0 0.00 0.01 0.00 83 1021.4
20260510062801 43 298 3.0 9.0 0.00 0.02 0.00 83 1021.4
20260510062301 43 307 3.0 7.0 0.00 0.02 0.00 84 1021.4
20260510061801 42 304 4.0 6.0 0.00 0.02 0.00 84 1021.4
20260510061302 42 308 3.0 7.0 0.00 0.02 0.00 84 1021.4
20260510060301 42 309 5.0 6.0 0.00 0.02 0.00 85 1021.4
20260510055801 41 312 5.0 9.0 0.00 0.02 0.00 85 1021.4
20260510055301 41 307 6.0 12.0 0.00 0.02 0.00 85 1021.3
20260510054301 40 313 7.0 12.0 0.00 0.02 0.00 86 1021.3
20260510052801 40 313 7.0 10.0 0.00 0.02 0.00 86 1021.4
20260510052301 40 311 7.0 13.0 0.00 0.02 0.00 86 1021.4
20260510051801 40 316 8.0 12.0 0.00 0.02 0.00 86 1021.3
20260510051301 40 310 7.0 14.0 0.00 0.02 0.00 86 1021.3
20260510050801 40 317 9.0 13.0 0.00 0.02 0.00 86 1021.3
20260510050301 40 309 8.0 13.0 0.00 0.02 0.00 86 1021.3
20260510045803 40 317 7.0 9.0 0.00 0.02 0.00 86 1021.3
20260510044801 40 314 7.0 12.0 0.00 0.02 0.00 86 1021.4
20260510044303 40 311 7.0 10.0 0.00 0.02 0.00 86 1021.4
20260510043802 40 313 7.0 9.0 0.00 0.02 0.00 85 1021.5
20260510043301 40 307 5.0 13.0 0.00 0.02 0.00 85 1021.4
20260510042803 41 310 6.0 9.0 0.00 0.02 0.00 85 1021.4
20260510042305 41 311 7.0 10.0 0.00 0.02 0.00 85 1021.5
20260510041801 41 308 7.0 9.0 0.00 0.02 0.00 85 1021.5
20260510041302 41 310 5.0 9.0 0.00 0.02 0.00 85 1021.5
20260510040802 41 309 6.0 10.0 0.00 0.02 0.00 85 1021.5
20260510040301 41 306 6.0 13.0 0.00 0.02 0.00 85 1021.6
20260510035803 41 312 7.0 10.0 0.00 0.02 0.00 84 1021.6
20260510035305 41 310 6.0 12.0 0.00 0.02 0.00 84 1021.6
20260510034802 41 308 6.0 14.0 0.00 0.02 0.00 84 1021.5
20260510034302 41 309 7.0 13.0 0.00 0.02 0.00 84 1021.5
20260510033803 41 309 7.0 10.0 0.00 0.02 0.00 84 1021.6
20260510033302 41 310 6.0 9.0 0.00 0.02 0.00 84 1021.6
20260510032802 41 312 6.0 10.0 0.00 0.02 0.00 83 1021.6
20260510032306 41 312 6.0 10.0 0.00 0.02 0.00 83 1021.7
20260510031802 42 304 5.0 8.0 0.00 0.02 0.00 83 1021.7
20260510030802 42 310 5.0 8.0 0.00 0.02 0.00 82 1021.7
20260510025305 42 302 3.0 7.0 0.00 0.02 0.00 81 1021.8
20260510024302 42 300 6.0 10.0 0.00 0.02 0.00 81 1021.9
20260510023805 42 299 3.0 7.0 0.00 0.02 0.00 81 1021.9
20260510023302 43 311 3.0 7.0 0.00 0.02 0.00 81 1021.9
20260510022306 43 300 4.0 8.0 0.00 0.02 0.00 80 1021.9
20260510021302 43 303 3.0 6.0 0.00 0.02 0.00 80 1022.0
20260510020803 43 308 1.0 6.0 0.00 0.02 0.00 80 1022.0
20260510020303 43 293 3.0 8.0 0.00 0.02 0.00 80 1022.0
20260510015804 43 310 3.0 10.0 0.00 0.02 0.00 79 1021.9
20260510014803 43 305 4.0 7.0 0.00 0.02 0.00 79 1021.9
20260510013803 43 310 7.0 12.0 0.00 0.02 0.00 78 1021.8
20260510013304 43 314 5.0 13.0 0.00 0.02 0.00 78 1021.9
20260510012804 43 315 5.0 8.0 0.00 0.02 0.00 78 1022.0
20260510012306 43 299 4.0 10.0 0.00 0.02 0.00 78 1021.9
20260510011805 43 301 6.0 12.0 0.00 0.02 0.00 78 1021.9
20260510010803 44 303 7.0 12.0 0.00 0.02 0.00 77 1022.0
20260510005803 44 301 6.0 12.0 0.00 0.02 0.00 77 1021.9
20260510004803 44 305 4.0 9.0 0.00 0.02 0.00 77 1021.9
20260510004303 44 299 6.0 10.0 0.00 0.02 0.00 76 1021.9
20260510003804 44 302 6.0 12.0 0.00 0.02 0.00 76 1021.9
20260510003303 45 311 5.0 9.0 0.00 0.02 0.00 76 1021.9
20260510002306 45 307 5.0 7.0 0.00 0.02 0.00 75 1021.9
20260510001804 45 310 5.0 10.0 0.00 0.02 0.00 75 1022.0
20260510001303 45 309 4.0 10.0 0.00 0.02 0.00 75 1022.1
20260510000304 45 301 5.0 9.0 0.00 0.02 0.00 75 1022.1
20260509235825 45 309 4.0 7.0 0.00 0.02 0.00 75 1022.1
20260509235324 46 299 6.0 10.0 0.00 0.02 0.00 75 1022.0
20260509234824 46 305 5.0 8.0 0.00 0.02 0.00 75 1022.0
20260509234324 46 306 4.0 8.0 0.00 0.02 0.00 75 1022.0
20260509233824 46 312 5.0 8.0 0.00 0.02 0.00 75 1022.1
20260509233324 46 308 6.0 9.0 0.00 0.02 0.00 75 1022.0
20260509232326 46 309 6.0 8.0 0.00 0.02 0.00 76 1022.0
20260509231826 46 311 6.0 8.0 0.00 0.02 0.00 76 1022.0
20260509231324 46 314 6.0 9.0 0.00 0.02 0.00 76 1022.0
20260509230843 47 314 6.0 10.0 0.00 0.02 0.00 77 1022.0
20260509230324 47 309 4.0 6.0 0.00 0.02 0.00 76 1022.0
20260509225825 48 316 4.0 7.0 0.00 0.02 0.00 76 1021.9
20260509225326 48 310 3.0 7.0 0.00 0.02 0.00 76 1021.9
20260509224326 48 308 5.0 8.0 0.00 0.02 0.00 75 1021.8
20260509223825 48 311 3.0 6.0 0.00 0.02 0.00 75 1021.8
20260509223324 49 308 3.0 6.0 0.00 0.02 0.00 75 1021.9
20260509222325 49 306 3.0 9.0 0.00 0.02 0.00 74 1021.8
20260509221825 49 312 6.0 9.0 0.00 0.02 0.00 74 1021.7
20260509221325 49 312 6.0 8.0 0.00 0.02 0.00 74 1021.7
20260509220825 49 301 4.0 6.0 0.00 0.02 0.00 74 1021.7
20260509215825 49 307 5.0 7.0 0.00 0.02 0.00 73 1021.7
20260509214825 49 305 3.0 8.0 0.00 0.02 0.00 73 1021.6
20260509214325 49 317 4.0 6.0 0.00 0.02 0.00 73 1021.6
20260509213825 50 310 5.0 8.0 0.00 0.02 0.00 72 1021.5
20260509213325 50 315 5.0 7.0 0.00 0.02 0.00 72 1021.5
20260509212825 50 314 5.0 7.0 0.00 0.02 0.00 72 1021.5
20260509212325 50 308 3.0 7.0 0.00 0.02 0.00 72 1021.5
20260509211827 50 311 3.0 6.0 0.00 0.02 0.00 72 1021.4
20260509211326 51 312 3.0 6.0 0.00 0.02 0.00 73 1021.5
20260509210827 51 313 2.0 3.0 0.00 0.02 0.00 73 1021.5
20260509210327 51 298 0.0 2.0 0.00 0.02 0.00 73 1021.5
20260509205825 51 315 0.0 2.0 0.00 0.02 0.00 72 1021.4
20260509204825 52 310 0.0 2.0 0.00 0.02 0.00 73 1021.2
20260509204325 52 316 1.0 6.0 0.00 0.02 0.00 72 1021.2
20260509203825 52 313 2.0 6.0 0.00 0.02 0.00 71 1021.1
20260509203325 53 300 1.0 3.0 0.00 0.02 0.00 71 1021.1
20260509202825 53 206 0.0 2.0 0.00 0.02 0.00 70 1021.0
20260509202325 53 276 0.0 1.0 0.00 0.02 0.00 70 1021.0
20260509201826 54 259 1.0 3.0 0.00 0.02 0.00 69 1020.9
20260509201327 54 280 1.0 5.0 0.00 0.02 0.00 69 1021.0
20260509200326 54 154 1.0 5.0 0.00 0.02 0.00 68 1021.0
20260509195826 55 108 1.0 6.0 0.00 0.02 0.00 68 1020.9
20260509195326 55 168 1.0 6.0 0.00 0.02 0.00 69 1020.8
20260509194826 55 108 1.0 3.0 0.00 0.02 0.00 69 1020.7
20260509194326 56 121 1.0 5.0 0.00 0.02 0.00 68 1020.6
20260509193826 56 226 0.0 2.0 0.00 0.02 0.00 69 1020.7
20260509193327 56 103 0.0 3.0 0.00 0.02 0.00 69 1020.6
20260509192828 57 113 0.0 1.0 0.00 0.02 0.00 68 1020.6
20260509191326 57 123 2.0 8.0 0.00 0.02 0.00 67 1020.4
20260509190826 57 101 2.0 10.0 0.00 0.02 0.00 67 1020.3
20260509190327 58 109 2.0 6.0 0.00 0.02 0.00 66 1020.4
20260509184827 58 117 3.0 6.0 0.00 0.02 0.02 67 1020.2
20260509183827 58 105 3.0 8.0 0.00 0.02 0.02 67 1020.2
20260509183329 58 101 1.0 7.0 0.01 0.02 0.02 66 1020.1
20260509182827 59 120 3.0 8.0 0.01 0.02 0.02 65 1020.0
20260509182326 59 111 2.0 6.0 0.01 0.02 0.02 65 1020.0
20260509181826 59 85 2.0 6.0 0.01 0.02 0.02 65 1020.0
20260509181328 59 109 2.0 6.0 0.01 0.02 0.02 65 1020.0
20260509175828 58 111 3.0 7.0 0.01 0.02 0.02 65 1019.8
20260509174827 59 140 1.0 7.0 0.01 0.02 0.02 63 1019.8
20260509174328 59 273 1.0 5.0 0.01 0.02 0.02 59 1019.8
20260509173828 59 293 1.0 6.0 0.01 0.02 0.02 58 1019.8
20260509173327 59 279 2.0 8.0 0.00 0.01 0.01 58 1019.8
20260509172827 60 300 3.0 7.0 0.00 0.01 0.01 57 1019.8
20260509172329 60 255 2.0 8.0 0.00 0.01 0.01 57 1019.8
20260509171827 60 282 2.0 8.0 0.00 0.01 0.01 56 1019.8
20260509171328 60 306 5.0 10.0 0.00 0.01 0.01 56 1019.8
20260509170328 61 299 5.0 9.0 0.00 0.01 0.01 55 1019.7
20260509165827 61 314 3.0 12.0 0.00 0.01 0.01 56 1019.7
20260509165329 61 310 5.0 13.0 0.00 0.01 0.01 55 1019.6
20260509164827 61 299 3.0 9.0 0.00 0.01 0.01 56 1019.6
20260509164330 61 262 1.0 6.0 0.00 0.01 0.01 56 1019.7
20260509163828 62 259 2.0 6.0 0.00 0.01 0.01 56 1019.7
20260509163328 61 164 1.0 7.0 0.00 0.01 0.01 57 1019.7
20260509162828 61 273 2.0 6.0 0.00 0.01 0.01 56 1019.7
20260509162327 61 288 2.0 10.0 0.00 0.01 0.01 57 1019.6
20260509161828 61 285 5.0 10.0 0.00 0.01 0.01 56 1019.6
20260509161328 61 238 2.0 8.0 0.00 0.01 0.01 57 1019.6
20260509160828 61 302 6.0 10.0 0.00 0.01 0.01 57 1019.6
20260509155329 61 195 1.0 6.0 0.00 0.01 0.01 59 1019.7
20260509154828 60 122 6.0 13.0 0.00 0.01 0.01 59 1019.7
20260509153828 60 265 3.0 10.0 0.00 0.01 0.01 59 1019.7
20260509153328 60 300 5.0 8.0 0.00 0.01 0.01 59 1019.7
20260509152828 60 298 4.0 9.0 0.00 0.01 0.01 60 1019.7
20260509152330 60 290 3.0 12.0 0.00 0.01 0.01 59 1019.6
20260509151828 61 285 3.0 6.0 0.00 0.01 0.01 59 1019.7
20260509151329 61 254 2.0 6.0 0.00 0.01 0.01 59 1019.7
20260509150828 61 292 3.0 9.0 0.00 0.01 0.01 59 1019.7
20260509150330 61 278 4.0 9.0 0.00 0.01 0.01 58 1019.7
20260509145829 61 244 2.0 6.0 0.00 0.01 0.01 58 1019.7
20260509145328 61 275 2.0 9.0 0.00 0.01 0.01 58 1019.8
20260509144828 61 288 3.0 9.0 0.00 0.01 0.01 58 1019.8
20260509144330 61 299 5.0 10.0 0.00 0.01 0.01 57 1019.8
20260509143829 61 294 3.0 7.0 0.00 0.01 0.01 58 1019.8
20260509143329 61 303 5.0 9.0 0.00 0.01 0.01 58 1019.9
20260509142829 61 156 1.0 6.0 0.00 0.01 0.01 57 1019.8
20260509142330 61 242 2.0 6.0 0.00 0.01 0.01 59 1019.9
20260509141829 61 260 2.0 6.0 0.00 0.01 0.01 59 1019.9
20260509141331 61 311 3.0 7.0 0.00 0.01 0.01 59 1020.0
20260509140828 61 309 5.0 10.0 0.00 0.01 0.01 59 1020.0
20260509140329 61 304 6.0 9.0 0.00 0.01 0.01 58 1020.0
20260509135828 61 243 1.0 8.0 0.00 0.01 0.01 59 1020.0
20260509135329 61 303 2.0 6.0 0.00 0.01 0.01 59 1020.0
20260509134330 61 304 4.0 9.0 0.00 0.01 0.01 60 1019.9
20260509133830 61 287 4.0 9.0 0.00 0.01 0.01 60 1019.9
20260509133329 61 296 5.0 8.0 0.00 0.01 0.01 59 1019.9
20260509132829 61 291 3.0 6.0 0.00 0.01 0.01 60 1019.8
20260509132330 61 296 5.0 10.0 0.00 0.01 0.01 60 1019.8
20260509131830 62 301 3.0 6.0 0.00 0.01 0.01 60 1019.8
20260509130829 61 293 3.0 6.0 0.00 0.01 0.01 59 1019.9
20260509130329 61 213 1.0 5.0 0.00 0.01 0.01 61 1019.9
20260509125830 60 278 1.0 7.0 0.00 0.01 0.01 61 1019.9
20260509125329 60 290 2.0 6.0 0.00 0.01 0.01 61 1019.9
20260509124831 60 276 3.0 9.0 0.00 0.01 0.01 62 1019.9
20260509124330 60 143 1.0 6.0 0.00 0.01 0.01 62 1019.8
20260509123829 60 307 5.0 9.0 0.00 0.01 0.01 61 1019.9
20260509123329 60 291 4.0 10.0 0.00 0.01 0.01 61 1019.9
20260509121832 60 279 3.0 6.0 0.00 0.01 0.01 62 1020.0
20260509121330 60 286 3.0 6.0 0.00 0.01 0.01 63 1020.0
20260509115830 60 148 3.0 6.0 0.00 0.01 0.01 63 1020.1
20260509114830 60 295 3.0 6.0 0.00 0.01 0.01 63 1020.1
20260509114331 60 279 3.0 6.0 0.00 0.01 0.01 65 1020.0
20260509113330 60 293 3.0 12.0 0.00 0.01 0.01 65 1020.1
20260509112332 59 309 3.0 6.0 0.00 0.01 0.01 65 1020.0
20260509111830 59 137 2.0 10.0 0.00 0.01 0.01 66 1020.1
20260509111330 60 301 7.0 13.0 0.00 0.01 0.01 64 1020.0